N5GAH-13 Weather Reports


Display with metric or nautical units.
time (UTC)temp
F
wind
direction
speed
MPH
gust
MPH
rain 1hr
in
rain 24hr
in
rain mn
in
humidity
%
barometer
mb
20260906140035 75 142 3.0 7.0 0.00 0.00 0.00 73 1022.1
20260906133036 72 114 4.0 8.0 0.00 0.00 0.00 78 1021.9
20260906130034 71 139 2.0 4.0 0.00 0.00 0.00 79 1021.4
20260906123034 71 135 2.0 5.0 0.00 0.00 0.00 78 1021.2
20260906120034 71 136 2.0 5.0 0.00 0.00 0.00 76 1021.1
20260906113034 72 132 2.0 3.0 0.00 0.00 0.00 73 1021.1
20260906110034 73 139 1.0 3.0 0.00 0.00 0.00 71 1021.1
20260906103034 74 160 0.0 2.0 0.00 0.00 0.00 70 1020.7
20260906100034 75 170 1.0 4.0 0.00 0.00 0.00 70 1020.4
20260906093034 75 195 2.0 4.0 0.00 0.00 0.00 69 1020.5
20260906083034 77 198 3.0 5.0 0.00 0.00 0.00 66 1020.6
20260906070034 79 178 4.0 9.0 0.00 0.00 0.00 59 1020.8
20260906063034 80 163 3.0 8.0 0.00 0.00 0.00 57 1020.8
20260906053034 81 145 4.0 7.0 0.00 0.00 0.00 52 1021.2
20260906050034 82 137 5.0 9.0 0.00 0.00 0.00 50 1021.2
20260906043034 83 146 4.0 10.0 0.00 0.00 0.00 48 1021.0
20260906040034 84 142 6.0 12.0 0.00 0.00 0.00 47 1020.9
20260906033034 85 129 7.0 12.0 0.00 0.00 0.00 46 1020.6
20260906030034 86 127 6.0 12.0 0.00 0.00 0.00 44 1020.2
20260906023034 87 128 5.0 9.0 0.00 0.00 0.00 42 1019.8
20260906020034 89 121 5.0 10.0 0.00 0.00 0.00 41 1019.1
20260906013034 91 121 6.0 10.0 0.00 0.00 0.00 39 1018.7
20260906010034 93 115 7.0 13.0 0.00 0.00 0.00 37 1018.4
20260906003034 95 110 6.0 12.0 0.00 0.00 0.00 35 1018.4
20260906000034 96 98 6.0 13.0 0.00 0.00 0.00 34 1018.2
20260905233034 98 124 6.0 12.0 0.00 0.00 0.00 33 1017.9
20260905223034 101 115 6.0 12.0 0.00 0.00 0.00 30 1018.0
20260905220034 102 135 6.0 15.0 0.00 0.00 0.00 32 1017.9
20260905213034 102 104 7.0 16.0 0.00 0.00 0.00 32 1018.6
20260905210034 103 136 5.0 13.0 0.00 0.00 0.00 32 1018.8
20260905203034 103 130 5.0 13.0 0.00 0.00 0.00 31 1019.4
20260905200034 102 118 7.0 14.0 0.00 0.00 0.00 32 1019.8
20260905193034 101 123 7.0 15.0 0.00 0.00 0.00 34 1020.2
20260905190034 101 145 6.0 13.0 0.00 0.00 0.00 35 1020.4
20260905183034 99 115 6.0 11.0 0.00 0.00 0.00 37 1020.8
20260905180034 98 112 5.0 11.0 0.00 0.00 0.00 39 1021.2
20260905173034 96 102 4.0 9.0 0.00 0.00 0.00 41 1021.4
20260905170034 93 188 3.0 6.0 0.00 0.00 0.00 46 1021.5
20260905163034 90 213 4.0 8.0 0.00 0.00 0.00 51 1021.6
20260905160034 87 198 5.0 11.0 0.00 0.00 0.00 55 1021.5
20260905150034 80 195 5.0 10.0 0.00 0.00 0.00 66 1021.8
20260905143034 78 178 3.0 10.0 0.00 0.00 0.00 68 1021.5